Flag for Canada Weather past 2 weeks in Gatineau, Quebec, Canada

Now
72 °F

Partly sunny.


Feels Like: 76 °F
Forecast: 58 / 74 °F
Wind: 10 mph from West

Location: Ottawa Int'L. Ont.

Current Time: Jul 26, 2014 at 12:10:59 PM

Latest Report: Jul 26, 2014 at 11:00 AM


Visibility: 15 mi

Pressure: 29.87 "Hg

Humidity: 61%

Dew point: 57 °F

Location of GatineauLocation

Historic Weather in Gatineau — Graph

°F

Gatineau temperature yesterday

Maximum temperature yesterday: 79 °F (at 2:00 PM)
Minimum temperature yesterday: 55 °F (at 6:00 AM)
Average temperature yesterday: 67 °F

Past Weeks' High & Low Weather Summary

 TemperatureHumidityPressure
High84 °F (Jul 22, 12:00 PM)100% (Jul 13, 11:00 AM)30.26 "Hg (Jul 13, 11:00 AM)
Low50 °F (Jul 17, 5:00 AM)39% (Jul 11, 2:00 PM)29.66 "Hg (Jul 13, 4:00 PM)
Average68 °F72%29.97 "Hg
* Reported Jul 11 11:00 AM — Jul 26 11:00 AM, Gatineau, Weather by CustomWeather, © 2014

Note: Actual official high and low records may vary slightly from our data, if they occured in-between our weather recording intervals... More about our weather records

Advertising

Gatineau weather history for previous 24 hours

 ConditionsComfort  
Time TempWeatherWind HumidityBarometerVisibility
11:00 AM
Jul 26
72 °FPartly sunny.10 mph61%29.87 "Hg15 mi
10:00 AM68 °FPartly sunny.10 mph69%29.88 "Hg15 mi
9:00 AM66 °FBroken clouds.9 mph73%29.87 "Hg15 mi
8:00 AM63 °FBroken clouds.5 mph83%29.88 "Hg15 mi
7:00 AM59 °FBroken clouds.5 mph88%29.88 "Hg15 mi
6:00 AM57 °FPassing clouds.6 mph94%29.88 "Hg15 mi
5:00 AM57 °FPassing clouds.2 mph88%29.88 "Hg15 mi
4:00 AM57 °FPassing clouds.6 mph88%29.88 "Hg15 mi
3:00 AM57 °FPassing clouds.8 mph88%29.88 "Hg15 mi
2:00 AM59 °FPassing clouds.6 mph82%29.89 "Hg15 mi
1:00 AM61 °FPassing clouds.8 mph77%29.90 "Hg15 mi
12:00 AM63 °FPassing clouds.8 mph68%29.91 "Hg15 mi
11:00 PM
Jul 25
63 °FPassing clouds.7 mph68%29.90 "Hg15 mi
10:00 PM66 °FPassing clouds.10 mph60%29.89 "Hg15 mi
9:00 PM68 °FPassing clouds.7 mph64%29.88 "Hg15 mi
8:00 PM72 °FPassing clouds.8 mph57%29.88 "Hg15 mi
7:00 PM75 °FPassing clouds.12 mph50%29.88 "Hg15 mi
6:00 PM77 °FPartly sunny.16 mph47%29.88 "Hg15 mi
5:00 PM77 °FPartly sunny.16 mph51%29.88 "Hg15 mi
4:00 PM79 °FPartly sunny.17 mph48%29.90 "Hg15 mi
3:00 PM79 °FPartly sunny.14 mph48%29.91 "Hg15 mi
2:00 PM79 °FPartly sunny.13 mph54%29.92 "Hg15 mi
1:00 PM75 °FPartly sunny.8 mph57%29.95 "Hg15 mi
12:00 PM73 °FPartly sunny.7 mph61%29.96 "Hg15 mi
Weather by CustomWeather, © 2014

See weather overviewHow to use our weather pages